EW0158 Weather Reports


Display with metric or nautical units.
time (UTC)temp
F
wind
direction
speed
MPH
gust
MPH
rain 1hr
in
rain 24hr
in
rain mn
in
humidity
%
barometer
mb
20260831231019 92 135 8.0 17.0 0.00 0.00 0.00 41 1015.8
20260831230015 93 112 8.0 15.0 0.00 0.00 0.00 40 1015.7
20260831225019 93 135 7.0 13.0 0.00 0.00 0.00 40 1015.8
20260831224015 94 157 6.0 14.0 0.00 0.00 0.00 39 1015.9
20260831223017 94 157 5.0 11.0 0.00 0.00 0.00 38 1015.9
20260831222017 93 180 7.0 12.0 0.00 0.00 0.00 39 1015.9
20260831220018 93 180 7.0 12.0 0.00 0.00 0.00 40 1016.0
20260831215017 94 180 8.0 16.0 0.00 0.00 0.00 38 1016.2
20260831214017 94 112 7.0 14.0 0.00 0.00 0.00 38 1016.3
20260831213015 94 180 7.0 15.0 0.00 0.00 0.00 39 1016.4
20260831212017 94 180 5.0 9.0 0.00 0.00 0.00 38 1016.5
20260831211017 94 112 8.0 13.0 0.00 0.00 0.00 37 1016.9
20260831210017 93 112 5.0 13.0 0.00 0.00 0.00 38 1016.8
20260831205118 93 157 5.0 10.0 0.00 0.00 0.00 38 1017.1
20260831204017 93 112 6.0 13.0 0.00 0.00 0.00 38 1017.2
20260831203019 93 112 7.0 14.0 0.00 0.00 0.00 39 1017.4
20260831202015 94 135 4.0 10.0 0.00 0.00 0.00 40 1017.7
20260831201019 94 112 6.0 11.0 0.00 0.00 0.00 42 1017.8
20260831200017 93 180 6.0 13.0 0.00 0.00 0.00 44 1017.9
20260831195115 91 157 8.0 18.0 0.00 0.00 0.00 44 1018.1
20260831194015 92 157 5.0 11.0 0.00 0.00 0.00 44 1018.2
20260831193015 93 157 6.0 15.0 0.00 0.00 0.00 46 1018.3
20260831192015 91 135 7.0 13.0 0.00 0.00 0.00 47 1018.4
20260831191017 91 135 7.0 13.0 0.00 0.00 0.00 47 1018.5
20260831190016 92 112 5.0 10.0 0.00 0.00 0.00 44 1018.6
20260831185015 91 180 4.0 14.0 0.00 0.00 0.00 46 1018.4
20260831184017 90 135 4.0 7.0 0.00 0.00 0.00 47 1018.8
20260831183116 90 112 6.0 13.0 0.00 0.00 0.00 47 1018.9
20260831182015 91 90 6.0 12.0 0.00 0.00 0.00 47 1019.0
20260831181017 90 135 4.0 10.0 0.00 0.00 0.00 46 1019.1
20260831180015 91 180 5.0 10.0 0.00 0.00 0.00 49 1019.2
20260831175015 90 180 6.0 12.0 0.00 0.00 0.00 49 1019.3
20260831174017 90 202 6.0 12.0 0.00 0.00 0.00 47 1019.4
20260831173015 89 180 4.0 10.0 0.00 0.00 0.00 53 1019.4
20260831172017 88 202 6.0 11.0 0.00 0.00 0.00 51 1019.5
20260831171015 89 202 8.0 15.0 0.00 0.00 0.00 51 1019.7
20260831170015 88 180 7.0 13.0 0.00 0.00 0.00 52 1019.6
20260831165015 87 157 6.0 13.0 0.00 0.00 0.00 54 1019.7
20260831164015 86 180 7.0 13.0 0.00 0.00 0.00 54 1019.6
20260831163015 86 180 7.0 14.0 0.00 0.00 0.00 56 1019.6
20260831162015 86 202 8.0 14.0 0.00 0.00 0.00 55 1019.6
20260831161015 85 180 6.0 11.0 0.00 0.00 0.00 56 1019.2
20260831160020 85 202 11.0 16.0 0.00 0.00 0.00 57 1019.2
20260831155020 84 202 9.0 16.0 0.00 0.00 0.00 57 1019.0
20260831154015 83 202 9.0 16.0 0.00 0.00 0.00 59 1018.8
20260831153018 83 202 7.0 13.0 0.00 0.00 0.00 62 1018.8
20260831152015 82 180 9.0 16.0 0.00 0.00 0.00 63 1018.7
20260831151015 81 180 8.0 13.0 0.00 0.00 0.00 67 1018.6
20260831150015 80 180 6.0 11.0 0.00 0.00 0.00 67 1018.6
20260831145015 79 202 11.0 17.0 0.00 0.00 0.00 70 1018.5
20260831144015 79 180 9.0 18.0 0.00 0.00 0.00 73 1018.3
20260831143015 77 180 10.0 15.0 0.00 0.00 0.00 76 1018.4
20260831142015 76 180 8.0 12.0 0.00 0.00 0.00 79 1018.2
20260831141015 76 180 10.0 17.0 0.00 0.00 0.00 80 1018.2
20260831140015 75 180 8.0 16.0 0.00 0.00 0.00 83 1018.5
20260831135015 74 180 7.0 15.0 0.00 0.00 0.00 85 1018.1
20260831134015 74 180 9.0 15.0 0.00 0.00 0.00 86 1018.1
20260831133015 73 180 9.0 18.0 0.00 0.00 0.00 87 1017.9
20260831132016 72 180 8.0 14.0 0.00 0.00 0.00 88 1017.9
20260831131015 72 180 7.0 12.0 0.00 0.00 0.00 89 1017.8
20260831130015 71 180 9.0 14.0 0.00 0.00 0.00 89 1017.8
20260831125015 71 180 7.0 13.0 0.00 0.00 0.00 89 1017.8
20260831124015 71 180 7.0 13.0 0.00 0.00 0.00 90 1017.7
20260831123015 71 180 6.0 10.0 0.00 0.00 0.00 90 1017.6
20260831122015 71 180 6.0 12.0 0.00 0.00 0.00 90 1017.6
20260831121015 71 180 7.0 12.0 0.00 0.00 0.00 89 1017.6
20260831120015 71 180 6.0 11.0 0.00 0.00 0.00 89 1017.6
20260831115015 71 180 6.0 10.0 0.00 0.00 0.00 89 1017.6
20260831114015 71 180 6.0 11.0 0.00 0.00 0.00 89 1017.7
20260831113016 71 180 6.0 11.0 0.00 0.00 0.00 89 1017.8
20260831112015 71 180 5.0 11.0 0.00 0.00 0.00 88 1017.7
20260831111017 71 180 5.0 9.0 0.00 0.00 0.00 88 1017.9
20260831110016 71 180 6.0 12.0 0.00 0.00 0.00 88 1018.1
20260831104015 72 180 7.0 13.0 0.00 0.00 0.00 87 1018.0
20260831102016 72 180 6.0 12.0 0.00 0.00 0.00 87 1018.1
20260831101116 72 180 7.0 12.0 0.00 0.00 0.00 87 1018.2
20260831100016 72 180 7.0 11.0 0.00 0.00 0.00 86 1018.2
20260831095015 72 180 7.0 11.0 0.00 0.00 0.00 86 1018.0
20260831094016 72 180 7.0 15.0 0.00 0.00 0.00 86 1017.9
20260831093016 72 180 7.0 13.0 0.00 0.00 0.00 85 1018.1
20260831092016 72 180 7.0 11.0 0.00 0.00 0.00 84 1017.9
20260831090015 73 180 7.0 13.0 0.00 0.00 0.00 82 1018.2
20260831085016 73 180 7.0 14.0 0.00 0.00 0.00 82 1018.3
20260831084016 73 180 6.0 11.0 0.00 0.00 0.00 81 1018.3
20260831083116 74 180 5.0 12.0 0.00 0.00 0.00 81 1018.3
20260831082016 74 180 6.0 12.0 0.00 0.00 0.00 80 1018.4
20260831081101 74 157 5.0 9.0 0.00 0.00 0.00 79 1018.3
20260831080015 74 180 5.0 9.0 0.00 0.00 0.00 79 1018.3
20260831075015 75 180 5.0 10.0 0.00 0.00 0.00 78 1018.5
20260831074015 75 180 5.0 11.0 0.00 0.00 0.00 78 1018.6
20260831073016 75 180 5.0 10.0 0.00 0.00 0.00 77 1018.5
20260831072015 75 180 6.0 15.0 0.00 0.00 0.00 76 1018.5
20260831071015 75 180 5.0 10.0 0.00 0.00 0.00 76 1018.7
20260831070015 76 157 5.0 10.0 0.00 0.00 0.00 75 1018.6
20260831065016 76 135 5.0 11.0 0.00 0.00 0.00 74 1018.7
20260831064116 76 157 4.0 7.0 0.00 0.00 0.00 73 1018.6
20260831063015 76 180 5.0 12.0 0.00 0.00 0.00 73 1018.6
20260831062116 77 180 5.0 9.0 0.00 0.00 0.00 72 1018.5
20260831061015 77 157 4.0 9.0 0.00 0.00 0.00 71 1018.5
20260831060016 77 180 5.0 10.0 0.00 0.00 0.00 70 1018.4
20260831055016 77 180 5.0 9.0 0.00 0.00 0.00 69 1018.3
20260831054016 77 180 6.0 12.0 0.00 0.00 0.00 69 1018.2
20260831053016 77 180 4.0 9.0 0.00 0.00 0.00 68 1017.9
20260831052116 78 180 4.0 7.0 0.00 0.00 0.00 66 1017.9
20260831051016 78 180 5.0 9.0 0.00 0.00 0.00 65 1017.8
20260831050016 79 157 5.0 11.0 0.00 0.00 0.00 64 1017.9
20260831045015 79 180 5.0 9.0 0.00 0.00 0.00 63 1017.7
20260831044015 79 180 3.0 7.0 0.00 0.00 0.00 61 1017.7
20260831043015 79 157 4.0 6.0 0.00 0.00 0.00 61 1017.7
20260831042015 79 157 4.0 10.0 0.00 0.00 0.00 61 1017.6
20260831041016 78 157 4.0 9.0 0.00 0.00 0.00 61 1017.6
20260831040015 78 135 3.0 9.0 0.00 0.00 0.00 61 1017.3
20260831034015 78 157 1.0 3.0 0.00 0.00 0.00 61 1016.8
20260831033015 78 157 1.0 2.0 0.00 0.00 0.00 61 1016.9
20260831032015 79 157 1.0 3.0 0.00 0.00 0.00 60 1017.0
20260831031015 79 157 2.0 3.0 0.00 0.00 0.00 59 1016.9
20260831030016 79 157 2.0 5.0 0.00 0.00 0.00 59 1016.9
20260831025015 79 180 2.0 4.0 0.00 0.00 0.00 58 1016.6
20260831024016 79 157 2.0 4.0 0.00 0.00 0.00 58 1016.6
20260831022116 80 135 2.0 3.0 0.00 0.00 0.00 57 1016.1
20260831021015 80 135 1.0 2.0 0.00 0.00 0.00 55 1015.9
20260831020015 81 135 2.0 3.0 0.00 0.00 0.00 54 1015.7
20260831015017 82 157 2.0 4.0 0.00 0.00 0.00 53 1015.6
20260831014015 82 157 3.0 4.0 0.00 0.00 0.00 52 1015.6
20260831013017 83 157 2.0 4.0 0.00 0.00 0.00 51 1015.5
20260831012015 83 135 2.0 4.0 0.00 0.00 0.00 51 1015.6
20260831011017 84 157 2.0 4.0 0.00 0.00 0.00 50 1015.7
20260831010021 85 157 3.0 4.0 0.00 0.00 0.00 48 1015.6
20260831005017 86 180 3.0 5.0 0.00 0.00 0.00 47 1015.7
20260831004015 87 157 4.0 9.0 0.00 0.00 0.00 46 1015.6
20260831003016 87 180 6.0 10.0 0.00 0.00 0.00 46 1015.6
20260831002015 88 157 4.0 9.0 0.00 0.00 0.00 45 1015.4
20260831001016 89 157 5.0 14.0 0.00 0.00 0.00 44 1015.4
20260831000017 89 180 5.0 10.0 0.00 0.00 0.00 44 1015.4
20260830235017 90 157 6.0 11.0 0.00 0.00 0.00 42 1015.5
20260830234015 90 180 6.0 12.0 0.00 0.00 0.00 42 1015.5
20260830233015 91 157 6.0 11.0 0.00 0.00 0.00 42 1015.3
20260830232016 92 157 7.0 13.0 0.00 0.00 0.00 41 1015.6